Weather History for Clarion, IA

Change the Weather History Date:

Friday, January 10, 2014

  Actual Average Record
Temperature  
Mean Temperature 26 °F -  
Max Temperature 32 °F 19 °F 59 °F (2012)
Min Temperature 19 °F 2 °F -22 °F (1977)
Degree Days  
Heating Degree Days 40    
Moisture  
Dew Point 26 °F    
Average Humidity 98    
Maximum Humidity 100    
Minimum Humidity 93    
Precipitation  
Precipitation 0.00 in - - ()
Sea Level Pressure  
Sea Level Pressure 29.68 in    
Wind  
Wind Speed 12 mph (South)    
Max Wind Speed 21 mph    
Max Gust Speed 24 mph    
Visibility 1 miles    
Events Fog , Snow    
Averages and records for this station are not official NWS values.
T = Trace of Precipitation, MM = Missing Value Source: NWS Daily Summary

Daily Weather History Graph

Daily Weather History Graph

Search for Another Location

Airport:

Trip Planner

Search our weather history database for the weather conditions in past years. The results will help you decide how hot, cold, wet, or windy it might be!

Date:

Astronomy

Jan. 10, 2014 Rise Set
Actual Time 7:44 AM CST 5:00 PM CST
Civil Twilight 7:13 AM CST 5:32 PM CST
Nautical Twilight 6:37 AM CST 6:07 PM CST
Astronomical Twilight 6:03 AM CST 6:41 PM CST
Moon 1:07 PM CST (1/10) 2:50 AM CST (1/10)
Length of Visible Light 10h 19m
Length of Day
9h 16m
Waxing Gibbous, 75% of the Moon is Illuminated
Jan 10
Waxing Gibbous
Jan 15
Full
Jan 23
Last Quarter
Jan 30
New
Feb 6
First Quarter

Hourly Weather History & Observations

Time (CST) Temp. Windchill Dew Point Humidity Pressure Visibility Wind Dir Wind Speed Gust Speed Precip Events Conditions
12:15 AM 19.4 °F 4.5 °F 17.6 °F 93% 29.93 in 1.5 mi South 17.3 mph 24.2 mph N/A   Overcast
12:35 AM 19.4 °F 3.2 °F 17.6 °F 93% 29.94 in 0.8 mi South 20.7 mph - N/A   Overcast
12:55 AM 19.4 °F 5.0 °F 17.6 °F 93% 29.94 in 2.0 mi South 16.1 mph 23.0 mph N/A   Overcast
1:15 AM 19.4 °F 5.5 °F 17.6 °F 93% 29.93 in 2.5 mi South 15.0 mph - N/A   Overcast
1:35 AM 19.4 °F 6.0 °F 17.6 °F 93% 29.94 in 2.5 mi South 13.8 mph - N/A   Overcast
1:55 AM 19.4 °F 6.6 °F 19.4 °F 100% 29.93 in 2.5 mi SSW 12.7 mph - N/A   Overcast
2:15 AM 21.2 °F 8.3 °F 19.4 °F 93% 29.92 in 1.0 mi South 13.8 mph - N/A   Overcast
2:35 AM 21.2 °F 6.8 °F 19.4 °F 93% 29.92 in 0.5 mi South 17.3 mph - N/A Fog Light Freezing Fog
2:55 AM 21.2 °F 7.8 °F 19.4 °F 93% 29.91 in 0.5 mi South 15.0 mph - N/A   Overcast
3:15 AM 21.2 °F 8.3 °F 19.4 °F 93% 29.90 in 0.5 mi South 13.8 mph - N/A   Overcast
3:35 AM 21.2 °F 7.8 °F 19.4 °F 93% 29.89 in 0.8 mi South 15.0 mph - N/A   Overcast
3:55 AM 21.2 °F 8.9 °F 21.2 °F 100% 29.87 in 1.2 mi South 12.7 mph - N/A   Overcast
4:15 AM 21.2 °F 8.9 °F 21.2 °F 100% 29.86 in 2.0 mi South 12.7 mph - N/A   Overcast
4:35 AM 23.0 °F 11.1 °F 21.2 °F 93% 29.85 in 2.5 mi South 12.7 mph - N/A   Overcast
4:55 AM 23.0 °F 10.6 °F 21.2 °F 93% 29.85 in 3.0 mi SSE 13.8 mph - N/A   Overcast
5:15 AM 23.0 °F 11.1 °F 21.2 °F 93% 29.83 in - SSE 12.7 mph - N/A   Overcast
5:35 AM 23.0 °F 11.7 °F 21.2 °F 93% 29.82 in 0.5 mi SE 11.5 mph - N/A   Overcast
5:55 AM 23.0 °F 11.1 °F 21.2 °F 93% 29.81 in 1.0 mi SE 12.7 mph - N/A   Overcast
6:15 AM 23.0 °F 11.7 °F 21.2 °F 93% 29.79 in 1.5 mi SE 11.5 mph - N/A   Overcast
6:35 AM 23.0 °F 10.6 °F 23.0 °F 100% 29.79 in 1.2 mi SE 13.8 mph - N/A   Overcast
6:55 AM 23.0 °F 10.1 °F 23.0 °F 100% 29.78 in 1.0 mi SE 15.0 mph - N/A   Overcast
7:15 AM 23.0 °F 10.6 °F 23.0 °F 100% 29.78 in 0.5 mi SE 13.8 mph - N/A   Overcast
7:35 AM 24.8 °F 13.4 °F 23.0 °F 93% 29.78 in 0.8 mi SSE 12.7 mph - N/A   Overcast
7:55 AM 24.8 °F 12.9 °F 24.8 °F 100% 29.78 in 0.5 mi SSE 13.8 mph - N/A   Overcast
8:15 AM 24.8 °F 14.0 °F 24.8 °F 100% 29.77 in 0.8 mi SSE 11.5 mph - N/A   Overcast
8:35 AM 24.8 °F 13.4 °F 24.8 °F 100% 29.78 in 0.8 mi SSE 12.7 mph 18.4 mph N/A   Overcast
8:55 AM 26.6 °F 14.7 °F 26.6 °F 100% 29.77 in 0.2 mi SSE 15.0 mph - N/A Fog Light Freezing Fog
9:15 AM 26.6 °F 14.7 °F 26.6 °F 100% 29.76 in 0.5 mi SSE 15.0 mph - N/A Fog Light Freezing Fog
9:35 AM 26.6 °F 15.2 °F 26.6 °F 100% 29.76 in 0.5 mi SSE 13.8 mph - N/A Fog Light Freezing Fog
9:55 AM 28.4 °F 17.5 °F 28.4 °F 100% 29.75 in 0.5 mi SSE 13.8 mph - N/A   Overcast
10:15 AM 28.4 °F 18.0 °F 28.4 °F 100% 29.74 in 0.5 mi SSE 12.7 mph - N/A Fog Light Freezing Fog
10:35 AM 28.4 °F 19.1 °F 28.4 °F 100% 29.73 in 0.5 mi SSE 10.4 mph - N/A Fog Light Freezing Fog
10:55 AM 28.4 °F 20.4 °F 28.4 °F 100% 29.72 in 0.5 mi SSE 8.1 mph - N/A   Overcast
11:15 AM - - - N/A% 29.71 in 0.5 mi North - - N/A   Overcast
11:35 AM 30.2 °F 21.9 °F 30.2 °F 100% 29.68 in 0.5 mi SSE 9.2 mph - N/A   Overcast
11:55 AM 30.2 °F 22.6 °F 30.2 °F 100% 29.66 in 0.8 mi SSE 8.1 mph - N/A   Overcast
12:15 PM 30.2 °F 22.6 °F 30.2 °F 100% 29.64 in 0.5 mi SE 8.1 mph 16.1 mph N/A   Overcast
12:35 PM 30.2 °F 20.8 °F 30.2 °F 100% 29.61 in 0.5 mi SE 11.5 mph - N/A Fog Light Freezing Fog
12:55 PM - - - N/A% 29.60 in 0.5 mi SE 12.7 mph - N/A Fog Light Freezing Fog
1:15 PM 32.0 °F 21.2 °F 32.0 °F 100% 29.60 in 0.2 mi SSE 16.1 mph - N/A Fog Light Freezing Fog
1:35 PM 32.0 °F 23.0 °F 32.0 °F 100% 29.60 in 0.2 mi SE 11.5 mph - N/A Fog Light Freezing Fog
1:55 PM 32.0 °F 23.6 °F 32.0 °F 100% 29.59 in 0.5 mi SE 10.4 mph - N/A Fog Light Freezing Fog
2:15 PM 32.0 °F 25.6 °F 32.0 °F 100% 29.56 in 0.2 mi SE 6.9 mph - N/A Fog Light Freezing Fog
2:35 PM 32.0 °F 26.4 °F 32.0 °F 100% 29.56 in 0.8 mi SSE 5.8 mph - N/A   Overcast
2:55 PM 32.0 °F 28.7 °F 32.0 °F 100% 29.55 in 1.0 mi South 3.5 mph - N/A   Overcast
3:15 PM 32.0 °F - 32.0 °F 100% 29.55 in 0.8 mi Calm Calm - N/A   Overcast
3:35 PM 32.0 °F - 32.0 °F 100% 29.55 in 0.5 mi Calm Calm - N/A Fog Light Freezing Fog
3:55 PM 32.0 °F - 32.0 °F 100% 29.55 in 0.2 mi Calm Calm - N/A Fog Light Freezing Fog
4:15 PM 32.0 °F - 32.0 °F 100% 29.55 in 0.2 mi Calm Calm - N/A Fog Light Freezing Fog
4:35 PM 32.0 °F - 32.0 °F 100% 29.55 in 0.2 mi Calm Calm - N/A Fog Light Freezing Fog
4:55 PM 32.0 °F - 32.0 °F 100% 29.54 in 0.2 mi Calm Calm - N/A Fog Light Freezing Fog
5:15 PM 32.0 °F - 32.0 °F 100% 29.53 in 0.2 mi Calm Calm - N/A Fog Light Freezing Fog
5:35 PM - - - N/A% 29.54 in 0.8 mi Calm Calm - N/A   Overcast
5:55 PM 30.2 °F - 30.2 °F 100% 29.54 in 0.5 mi Calm Calm - N/A Fog Light Freezing Fog
6:15 PM 30.2 °F - 30.2 °F 100% 29.54 in 0.2 mi Calm Calm - N/A Fog Light Freezing Fog
6:35 PM 30.2 °F - 30.2 °F 100% 29.53 in 0.2 mi Calm Calm - N/A Fog Light Freezing Fog
6:55 PM 30.2 °F - 30.2 °F 100% 29.53 in 0.2 mi Calm Calm - N/A Fog Light Freezing Fog
7:15 PM 30.2 °F - 30.2 °F 100% 29.53 in 0.2 mi Calm Calm - N/A Fog Light Freezing Fog
7:35 PM 30.2 °F - 30.2 °F 100% 29.53 in 0.2 mi Calm Calm - N/A   Overcast
7:55 PM 30.2 °F 25.4 °F 30.2 °F 100% 29.53 in 0.2 mi WNW 4.6 mph - N/A Snow Light Snow
8:15 PM 28.4 °F - 28.4 °F 100% 29.53 in 0.2 mi Calm Calm - N/A Snow Light Snow
8:35 PM 28.4 °F 22.2 °F 28.4 °F 100% 29.53 in 0.2 mi West 5.8 mph - N/A Fog Light Freezing Fog
8:55 PM 28.4 °F 22.2 °F 28.4 °F 100% 29.53 in 0.2 mi West 5.8 mph - N/A Fog Light Freezing Fog
9:15 PM 28.4 °F 22.2 °F 28.4 °F 100% 29.53 in 0.2 mi West 5.8 mph - N/A Fog Light Freezing Fog
9:35 PM 28.4 °F 21.2 °F 28.4 °F 100% 29.53 in 1.0 mi West 6.9 mph - N/A   Overcast
9:55 PM - - - N/A% 29.52 in 2.0 mi WNW 8.1 mph - N/A   Overcast
10:15 PM 30.2 °F 23.4 °F 30.2 °F 100% 29.52 in 2.5 mi West 6.9 mph - N/A   Overcast
10:35 PM - - - N/A% 29.52 in 2.5 mi West 5.8 mph - N/A   Overcast
10:55 PM - - - N/A% 29.52 in 2.5 mi West 8.1 mph - N/A   Overcast
11:15 PM 30.2 °F 22.6 °F 30.2 °F 100% 29.52 in 2.0 mi West 8.1 mph - N/A   Overcast
11:35 PM 30.2 °F 21.9 °F 30.2 °F 100% 29.52 in 1.0 mi West 9.2 mph - N/A   Overcast
11:55 PM 30.2 °F 21.9 °F 30.2 °F 100% 29.51 in 1.8 mi WNW 9.2 mph - N/A   Overcast